Content
SEND FEEDBACK

Daily
Averages
Monthly
Summary
United States of America

STATEN ISLAND, NEW YORK


Home > North America > United States > New York
Elevation: 152 feet     Latitude: 40 35N     Longitude: 074 09W

WEATHER
 
SELECT A DAY
Number of Records: 189,786;   Date Range: 1/1/95 - 8/30/14
 
SHARE

PRINT THIS DATA

[ ← Previous Day ]
WEATHER ALMANAC - JANUARY 6, 2013
[ Next Day → ]
[ °C ]   °F
Weather ElementAverageHighLow
Temperature39.2 °F48 °F (2:51 pm)33.1 °F (4:51 am)
Dewpoint28.2 °F32 °F (7:06 am)23 °F (1:51 am)
Humidity67 %93 % (7:06 am)41 % (2:51 pm)
Barometer30.08 in30.22 in (1:51 am)29.98 in (2:51 pm)
Wind Speed9.1 mph15 mph (2:51 pm)
Wind Gust19.6 mph (1:51 pm)
Weather ElementAverage
Visibility8.7 mi
Wind DirectionWSW (237.6 °)

Weather ElementTotal
Precipitation---
Heating Degree Days24.5 (Base 65)
Averaged from 29 records on January 6, 2013
WEATHER CONDITIONS BREAKOUT
WIND DIRECTION BREAKOUT
WEATHER BY HOUR - JANUARY 6, 2013
[ °C ]   °F
Local TimeTemperatureDewpointHumidityBarometerVisibilityWind DirectionWind SpeedGust SpeedPrecipitationEventsConditions
1:51 AM34.0 °F23.0 °F64 %30.22 in10.0 miSW (230°)9.2 mphOvercast
2:51 AM34.0 °F23.0 °F64 %30.20 in10.0 miSSW (200°)4.6 mphOvercast
3:51 AM34.0 °F24.1 °F67 %30.17 in10.0 miSSW (200°)5.8 mphOvercast
4:51 AM33.1 °F28.0 °F82 %30.14 in10.0 miSSW (200°)8.1 mphOvercast
5:42 AM33.8 °F30.2 °F87 %30.13 in6.0 miSSW (210°)4.6 mph0.00 inOvercast
5:51 AM33.1 °F30.0 °F89 %30.13 in6.0 miSSW (210°)5.8 mph0.00 inOvercast
6:51 AM34.0 °F30.9 °F89 %30.13 in6.0 miSSW (210°)5.8 mphOvercast
7:06 AM33.8 °F32.0 °F93 %30.13 in6.0 miSW (220°)9.2 mphOvercast
7:51 AM35.1 °F32.0 °F89 %30.12 in6.0 miSW (230°)9.2 mphOvercast
8:46 AM35.6 °F32.0 °F87 %30.12 in6.0 miWSW (240°)8.1 mphOvercast
8:51 AM36.0 °F32.0 °F86 %30.12 in6.0 miSW (220°)8.1 mphOvercast
9:06 AM35.6 °F32.0 °F87 %30.11 in7.0 miSW (230°)8.1 mphMostly Cloudy
9:28 AM37.4 °F32.0 °F81 %30.12 in7.0 miSW (230°)11.5 mphMostly Cloudy
9:51 AM37.0 °F30.9 °F79 %30.12 in8.0 miSW (230°)10.4 mphMostly Cloudy
10:09 AM37.4 °F30.2 °F75 %30.11 in9.0 miWSW (250°)11.5 mphMostly Cloudy
10:51 AM39.9 °F30.9 °F70 %30.08 in9.0 miSW (220°)9.2 mphScattered Clouds
11:51 AM42.8 °F30.2 °F61 %30.05 in10.0 miWSW (240°)10.4 mphScattered Clouds
12:51 PM46.0 °F28.9 °F51 %30.01 in10.0 miWSW (250°)10.4 mphScattered Clouds
1:51 PM46.9 °F27.0 °F46 %29.99 in10.0 miWSW (240°)13.8 mph19.6 mphScattered Clouds
2:51 PM48.0 °F25.0 °F41 %29.98 in10.0 miWSW (250°)15.0 mph18.4 mphScattered Clouds
3:51 PM46.9 °F24.1 °F41 %29.98 in10.0 miWest (260°)11.5 mphScattered Clouds
4:51 PM45.0 °F26.1 °F48 %29.99 in10.0 miWest (260°)6.9 mphScattered Clouds
5:51 PM44.1 °F26.1 °F49 %30.01 in10.0 miWest (270°)8.1 mphScattered Clouds
6:51 PM44.1 °F25.0 °F47 %30.02 in10.0 miWSW (250°)10.4 mphMostly Cloudy
7:51 PM43.0 °F25.0 °F49 %30.02 in10.0 miWest (260°)10.4 mphOvercast
8:51 PM43.0 °F26.1 °F51 %30.02 in10.0 miWest (270°)10.4 mphOvercast
9:51 PM42.1 °F26.1 °F53 %30.03 in10.0 miWest (270°)10.4 mphOvercast
10:51 PM41.0 °F27.0 °F57 %30.04 in10.0 miWest (270°)6.9 mphMostly Cloudy
11:51 PM39.9 °F27.0 °F60 %30.05 in10.0 miWest (270°)9.2 mphOvercast
Hourly data recorded from KEWR, located miles away from Staten Island, New York







STORIES FROM OUR PARTNERS